Flag for Finland Weather past 2 weeks in Turku, Finland

Now
52 °F

Rain. Low clouds.


Feels Like: 47 °F
Forecast: 34 / 46 °F
Wind: 13 mph from Northeast

Location: Turku Airport

Current Time: Sep 22, 2014 at 12:21:30 PM

Latest Report: Sep 22, 2014 at 11:50 AM


Visibility: 5 mi

Pressure: 29.59 "Hg

Humidity: 94%

Dew point: 50 °F

Location of TurkuLocation

Historic Weather in Turku — Graph

°F

Turku temperature yesterday

Maximum temperature yesterday: 64 °F (at 1:50 PM)
Minimum temperature yesterday: 54 °F (at 10:20 PM)
Average temperature yesterday: 59 °F

Past Weeks' High & Low Weather Summary

 TemperatureHumidityPressure
High72 °F (Sep 8, 2:50 PM)100% (Sep 7, 10:20 PM)30.48 "Hg (Sep 7, 10:20 PM)
Low36 °F (Sep 14, 6:50 AM)40% (Sep 14, 3:50 PM)29.56 "Hg (Sep 22, 3:50 AM)
Average56 °F84%30.16 "Hg
* Reported Sep 7 11:20 AM — Sep 22 11:20 AM, Turku, Weather by CustomWeather, © 2014

Note: Actual official high and low records may vary slightly from our data, if they occured in-between our weather recording intervals... More about our weather records

Advertising

Turku weather history for previous 24 hours

 ConditionsComfort  
Time TempWeatherWind HumidityBarometerVisibility
11:20 AM
Sep 22
54 °FLight rain. Mostly cloudy.13 mph94%29.59 "HgN/A
10:50 AM54 °FLight rain. Mostly cloudy.12 mph94%29.59 "Hg4 mi
10:20 AM54 °FLight rain. Partly sunny.12 mph94%29.59 "Hg5 mi
9:50 AM54 °FPartly sunny.12 mph100%29.59 "Hg4 mi
9:20 AM54 °FLight rain. Partly sunny.10 mph100%29.59 "Hg4 mi
8:50 AM54 °FLight rain. Partly sunny.13 mph94%29.59 "Hg4 mi
8:20 AM54 °FBroken clouds.10 mph94%29.59 "Hg4 mi
7:50 AM54 °FPartly cloudy.10 mph94%29.59 "Hg4 mi
7:20 AM54 °FPassing clouds.12 mph94%29.56 "Hg4 mi
6:50 AM54 °FPassing clouds.9 mph94%29.56 "Hg6 mi
6:20 AM52 °FPassing clouds.12 mph100%29.56 "Hg5 mi
5:50 AM52 °FPassing clouds.10 mph100%29.56 "Hg5 mi
5:20 AM52 °FPassing clouds.9 mph100%29.56 "Hg5 mi
4:50 AM54 °FPassing clouds.10 mph94%29.56 "Hg5 mi
4:20 AM52 °FPassing clouds.9 mph100%29.56 "Hg4 mi
3:50 AM54 °FPartly cloudy.9 mph94%29.56 "Hg4 mi
3:20 AM54 °FPassing clouds.8 mph100%29.59 "Hg4 mi
2:50 AM54 °FFog.8 mph100%29.59 "Hg3 mi
2:20 AM54 °FPassing clouds.8 mph100%29.59 "Hg4 mi
1:50 AM54 °FFog.6 mph100%29.59 "Hg2 mi
1:20 AM54 °FFog.7 mph100%29.59 "Hg3 mi
12:50 AM54 °FFog.6 mph100%29.59 "Hg2 mi
12:20 AM54 °FFog.7 mph100%29.59 "Hg2 mi
11:20 PM
Sep 21
54 °FFog.6 mph100%29.62 "Hg2 mi
10:50 PM54 °FFog.3 mph94%29.62 "Hg1 mi
10:20 PM54 °FFog.2 mph100%29.62 "Hg2 mi
9:50 PM55 °FFog.2 mph94%29.62 "Hg3 mi
9:20 PM55 °FFog.2 mph94%29.62 "Hg2 mi
8:50 PM57 °FPassing clouds.No wind88%29.65 "Hg5 mi
8:20 PM57 °FPassing clouds.3 mph88%29.65 "HgN/A
7:50 PM59 °FPartly sunny.5 mph88%29.65 "HgN/A
7:20 PM59 °FPartly sunny.7 mph88%29.65 "HgN/A
6:50 PM61 °FPartly sunny.3 mph77%29.65 "HgN/A
6:20 PM61 °FPassing clouds.6 mph77%29.65 "HgN/A
5:20 PM63 °FPartly sunny.7 mph73%29.68 "HgN/A
4:50 PM63 °FScattered clouds.6 mph68%29.68 "HgN/A
4:20 PM63 °FScattered clouds.7 mph68%29.68 "HgN/A
3:50 PM63 °FPassing clouds.7 mph68%29.68 "HgN/A
3:20 PM63 °FPassing clouds.9 mph68%29.71 "HgN/A
2:50 PM63 °FPassing clouds.8 mph73%29.71 "HgN/A
2:20 PM64 °FPassing clouds.9 mph64%29.71 "HgN/A
1:50 PM64 °FPassing clouds.7 mph64%29.71 "HgN/A
1:20 PM63 °FPassing clouds.10 mph64%29.71 "HgN/A
12:50 PM63 °FPassing clouds.10 mph68%29.71 "HgN/A
12:20 PM63 °FPassing clouds.9 mph68%29.74 "HgN/A
Weather by CustomWeather, © 2014

See weather overviewHow to use our weather pages